{"data":{"norad_id":51465,"epoch":"2026-09-20T04:00:03.000096Z","epoch_age_seconds":77157,"freshness":"FRESH","line1":"1 51465U 22010K   26263.16670139  .00087079  00000+0  19790-2 0  9996","line2":"2 51465  53.1627 118.6356 0001377  95.5630 146.0595 15.42294004  5885","mean_motion":15.42294004,"eccentricity":0.0001377,"inclination_deg":53.1627,"raan_deg":118.6356,"arg_perigee_deg":95.563,"mean_anomaly_deg":146.0595,"bstar":0.001979,"rev_number":588,"period_min":93.367412196721,"perigee_km":438.4019621224,"apogee_km":440.27949548891,"semimajor_km":6817.4777288057,"source":"CELESTRAK","updated_at":"2026-09-20T09:00:39.595040Z"}}